TimeEST,TemperatureF,Dew PointF,Humidity,Sea Level PressureIn,VisibilityMPH,Wind Direction,Wind SpeedMPH,Gust SpeedMPH,PrecipitationIn,Events,Conditions,WindDirDegrees,DateUTC
12:56 AM,32.0,-9999,N/A,30.21,10.0,WSW,10.4,-,N/A,,Clear,240,2013-02-19 05:56:00
1:56 AM,32.0,-9999,N/A,30.19,10.0,West,5.8,-,N/A,,Clear,260,2013-02-19 06:56:00
2:56 AM,27.0,19.9,75,30.17,10.0,Calm,Calm,-,N/A,,Clear,0,2013-02-19 07:56:00
3:56 AM,32.0,21.0,64,30.16,10.0,WSW,5.8,-,N/A,,Clear,240,2013-02-19 08:56:00
4:56 AM,23.0,17.6,80,30.16,9.0,Calm,Calm,-,N/A,,Clear,0,2013-02-19 09:56:00
5:56 AM,21.0,17.1,85,30.14,8.0,Calm,Calm,-,N/A,,Clear,0,2013-02-19 10:56:00
6:56 AM,19.9,17.1,89,30.12,6.0,Calm,Calm,-,N/A,,Clear,0,2013-02-19 11:56:00
7:56 AM,27.0,21.0,78,30.12,7.0,Calm,Calm,-,N/A,,Clear,0,2013-02-19 12:56:00
8:56 AM,37.0,30.0,76,30.09,8.0,Calm,Calm,-,N/A,,Clear,0,2013-02-19 13:56:00
9:56 AM,42.1,37.0,82,30.07,8.0,SSW,8.1,-,N/A,,Clear,210,2013-02-19 14:56:00
10:56 AM,43.0,37.0,80,30.06,8.0,SSW,12.7,-,N/A,,Clear,200,2013-02-19 15:56:00
11:56 AM,44.1,37.0,76,30.01,8.0,South,10.4,-,N/A,,Clear,190,2013-02-19 16:56:00
12:56 PM,44.1,37.9,79,29.99,8.0,SSW,10.4,-,N/A,,Mostly Cloudy,200,2013-02-19 17:56:00
1:56 PM,43.0,39.0,86,29.94,7.0,SSE,4.6,-,N/A,,Mostly Cloudy,160,2013-02-19 18:56:00
2:56 PM,42.1,41.0,96,29.90,6.0,South,12.7,-,0.00,Rain,Light Rain,180,2013-02-19 19:56:00
3:56 PM,42.1,42.1,100,29.86,5.0,South,11.5,-,0.00,Rain,Light Rain,180,2013-02-19 20:56:00
4:56 PM,41.0,41.0,100,29.80,2.5,South,6.9,-,0.01,Rain,Light Rain,180,2013-02-19 21:56:00
5:08 PM,41.0,41.0,100,29.79,3.0,SSW,5.8,-,0.00,Rain,Light Rain,200,2013-02-19 22:08:00
5:19 PM,41.0,41.0,100,29.78,2.0,SW,4.6,-,0.02,Rain,Rain,220,2013-02-19 22:19:00
5:27 PM,42.8,42.8,100,29.78,3.0,South,10.4,17.3,0.03,Rain,Light Rain,190,2013-02-19 22:27:00
5:43 PM,42.8,42.8,100,29.78,2.0,South,9.2,-,0.08,Rain,Rain,180,2013-02-19 22:43:00
5:56 PM,42.1,42.1,100,29.77,3.0,South,6.9,-,0.10,Rain,Rain,170,2013-02-19 22:56:00
6:03 PM,42.8,42.8,100,29.76,2.0,South,8.1,-,0.01,Rain,Rain,180,2013-02-19 23:03:00
6:11 PM,41.0,41.0,100,29.76,1.8,SSE,4.6,-,0.03,Rain,Rain,150,2013-02-19 23:11:00
6:31 PM,42.8,42.8,100,29.74,3.0,SSE,10.4,-,0.05,Rain,Light Rain,160,2013-02-19 23:31:00
7:39 PM,42.8,42.8,100,29.68,4.0,SSE,11.5,-,0.01,Rain,Light Rain,160,2013-02-20 00:39:00
7:47 PM,42.8,42.8,100,29.67,2.5,SSE,13.8,-,0.02,Rain,Light Rain,160,2013-02-20 00:47:00
7:56 PM,43.0,43.0,100,29.68,1.8,South,12.7,-,0.04,Rain,Light Rain,180,2013-02-20 00:56:00
8:02 PM,42.8,42.8,100,29.66,3.0,SSW,15.0,-,0.00,Rain,Light Rain,200,2013-02-20 01:02:00
8:56 PM,44.6,44.6,100,29.66,5.0,WSW,9.2,-,N/A,Rain,Light Rain,250,2013-02-20 01:56:00
9:29 PM,44.6,44.6,100,29.65,8.0,WSW,10.4,-,0.00,Rain,Light Rain,250,2013-02-20 02:29:00
9:44 PM,44.6,44.6,100,29.63,8.0,Variable,5.8,-,0.00,Rain,Light Rain,0,2013-02-20 02:44:00
9:56 PM,44.1,44.1,100,29.62,8.0,West,9.2,-,0.00,,Overcast,280,2013-02-20 02:56:00
10:07 PM,42.8,42.8,100,29.63,8.0,West,8.1,-,N/A,,Overcast,260,2013-02-20 03:07:00
10:34 PM,42.8,42.8,100,29.63,7.0,West,6.9,-,N/A,,Overcast,270,2013-02-20 03:34:00
10:44 PM,42.8,42.8,100,29.63,6.0,West,8.1,-,0.00,Rain,Light Rain,260,2013-02-20 03:44:00
10:56 PM,43.0,43.0,100,29.63,6.0,WNW,8.1,-,0.00,Rain,Light Rain,290,2013-02-20 03:56:00
11:08 PM,42.8,42.8,100,29.62,9.0,WNW,6.9,-,0.00,Rain,Light Rain,290,2013-02-20 04:08:00
11:56 PM,42.1,42.1,100,29.62,9.0,SW,8.1,-,0.00,,Overcast,230,2013-02-20 04:56:00